Location: Angwan Shehu
(11.2514°N, 7.4613°E)
Time: 07:17:10
(UTC+00:00)

SR - Pass Details

Date: 14 April 2021
Orbit: 573 x 882 km, 66.7° (Epoch: 12 May)

Event Time Altitude Azimuth Distance (km) Brightness Sun altitude
Rises 06:17:10 0° 173° (S) 3,047 ? 13.2°
Reaches altitude 10° 06:19:49 10° 159° (SSE) 2,186 ? 13.8°
Maximum altitude 06:23:47 24° 106° (ESE) 1,530 ? 14.8°
Drops below altitude 10° 06:28:01 10° 54° (NE) 2,350 ? 15.8°
Sets 06:30:57 0° 41° (NE) 3,332 ? 16.5°
